Location: Dugenta
(41.1333°N, 14.4500°E)
Time: 13:21:23
(UTC+00:00)

SJ 16-02 - Pass Details

Date: 03 March 2021
Orbit: 605 x 617 km, 75.0° (Epoch: 14 April)

Event Time Altitude Azimuth Distance (km) Brightness Sun altitude
Rises 19:36:12 0° 343° (NNW) 2,881 5.3 -30.6°
Reaches altitude 10° 19:38:27 10° 346° (NNW) 1,975 4.3 -31.0°
Enters shadow 19:39:29 17° 348° (NNW) 1,572 3.7 -31.2°
